SCP
5 5 4 5 5 5 5 5 5 4 6 7 6 3 2 2 2 2 2 2 2 2 2 2 2 2 2 2 2 1 1 1 1 1 1 1 1 1 1 1 1 1 1
6 4 4 4 4 5 5 5 5 5 7 8 6 3 2 2 2 2 2 1 2 2 2 2 2 2 2 2 2 1 1 1 1 1 1 1 1 1 1 1 1 1 1
6 4 3 3 4 4 4 4 5 6 7 7 5 3 2 2 2 1 1 1 1 2 2 2 2 2 2 2 2 2 1 1 1 1 1 1 1 1 1 1 1 1 1
7 5 4 3 3 4 4 5 5 6 6 5 4 3 2 2 1 1 1 1 1 1 1 1 2 1 2 2 2 2 2 1 1 1 1 1 1 1 1 1 1 1 1
8 7 5 4 4 4 5 5 6 6 5 4 4 3 2 2 1 1 1 1 1 1 1 1 1 1 1 2 2 2 2 1 1 1 1 1 1 1 1 1 1 1 1
8 8 7 5 4 4 4 5 6 6 5 5 4 3 2 1 1 0 0 1 1 1 1 1 1 1 1 1 1 1 1 1 1 1 1 1 1 1 1 1 1 1 1
6 7 7 5 4 3 4 4 5 5 5 5 5 4 2 1 0 0 0 0 1 1 1 2 2 2 1 1 1 1 1 1 1 1 1 1 1 1 1 1 1 1 1
3 4 5 5 3 3 3 3 4 5 5 6 5 4 2 1 0 0 0 0 1 2 2 2 2 2 1 1 1 1 1 0 0 0 0 1 1 1 1 1 1 1 1
1 2 3 3 3 2 2 2 3 4 5 5 5 4 3 1 0 0 0 0 1 2 2 2 2 2 1 0 1 1 1 0 0 0 0 0 0 0 0 0 1 1 1
1 1 1 2 3 2 2 2 2 3 4 4 4 4 3 1 0 0 0 0 1 2 2 2 1 1 0 0 0 0 0 0 0 0 0 0 0 0 0 0 1 1 1
1 1 1 1 2 2 2 2 2 2 3 3 3 3 2 1 1 0 0 0 1 1 2 2 1 1 0 0 0 0 0 0 0 0 1 1 1 1 1 1 1 1 1
1 1 1 1 1 2 3 3 2 2 2 2 2 2 2 1 1 0 0 0 0 1 1 2 1 1 0 0 0 0 0 0 0 1 1 1 1 1 1 1 1 1 1
1 1 1 1 1 1 2 2 2 2 2 2 2 2 1 1 1 0 0 0 0 0 1 1 1 0 0 0 0 0 0 0 1 1 1 1 1 1 1 1 1 1 1
1 1 1 1 1 1 1 2 1 1 1 1 1 1 1 1 0 0 0 0 0 0 0 0 0 0 0 0 0 0 1 1 1 2 1 1 1 1 1 1 1 1 1
1 1 1 1 1 1 1 1 1 1 1 1 1 1 1 0 0 0 0 0 0 0 0 0 0 0 0 1 1 1 1 1 1 1 1 1 1 1 1 1 1 1 1
1 1 1 0 0 0 0 0 0 0 0 0 1 1 0 0 0 0 0 0 0 0 0 0 0 0 0 1 1 1 1 1 1 1 1 1 1 1 1 1 1 1 1
0 0 0 0 0 0 0 0 0 0 0 0 0 0 0 0 0 0 0 0 0 0 0 0 0 0 0 0 0 0 0 1 1 1 1 1 1 1 1 1 0 0 0
0 0 0 0 0 0 0 0 0 0 0 0 0 0 0 0 0 0 0 0 0 0 0 0 0 0 0 0 0 0 0 0 0 1 1 0 0 0 0 0 0 0 0
0 0 0 0 0 0 0 0 0 0 0 0 0 0 0 0 0 0 0 0 0 0 0 0 0 0 0 0 0 0 0 0 0 0 0 0 0 0 0 0 0 0 0
0 0 0 0 0 0 0 0 0 0 0 0 0 0 0 0 0 0 0 0 0 0 0 0 0 0 0 0 0 0 0 0 0 0 0 0 0 0 0 0 0 0 0
0 0 0 0 0 0 0 0 0 0 0 0 0 0 0 0 0 0 0 0 0 0 0 0 0 0 0 0 0 0 0 0 0 0 0 0 0 0 0 0 0 0 0
0 0 0 0 0 0 0 0 0 0 0 0 0 0 0 0 0 0 0 0 0 0 0 0 0 0 0 0 0 0 0 0 0 0 0 0 0 0 0 0 0 0 0
0 0 0 0 0 0 0 0 0 0 0 0 0 0 0 0 0 0 0 0 0 0 0 0 0 0 0 0 0 0 0 0 0 0 0 0 0 0 0 0 0 0 0
0 0 0 0 0 0 0 0 0 0 0 0 0 0 0 0 0 0 0 0 0 0 0 0 0 0 0 0 0 0 0 0 0 0 0 0 0 0 0 0 0 0 0
0 0 0 0 0 0 0 0 0 0 0 0 0 0 0 0 0 0 0 0 0 0 0 0 0 0 0 0 0 0 0 0 0 0 0 0 0 0 0 0 0 0 0
1 0 0 0 0 0 0 0 0 0 0 0 0 0 0 0 0 0 0 0 0 0 0 0 0 0 0 0 0 0 0 0 0 0 0 0 0 0 0 0 0 0 0
Wind_Speed
2 3 3 3 3 3 3 2 2 1 1 2 1 2 2 2 2 3 4 4 4 4 5 5 6 6 6 5 5 6 6 6 8 8 6 6 6 6 5 6 6 6 5
2 3 3 3 3 3 2 2 1 1 1 2 2 2 2 2 3 3 4 4 4 5 5 5 6 5 6 6 5 6 6 6 7 9 7 6 7 6 6 6 6 6 6
3 3 3 3 3 3 2 2 1 1 1 2 2 2 2 3 3 4 4 4 5 5 5 6 6 6 7 6 7 6 6 6 6 7 7 6 6 5 6 6 6 5 7
2 3 3 3 3 2 2 2 1 1 1 2 2 2 3 3 3 4 4 5 5 6 5 6 6 6 6 7 6 6 6 7 7 7 7 6 5 5 5 5 5 5 5
2 3 2 2 2 2 2 2 1 1 1 2 2 3 3 3 3 4 5 5 5 6 6 6 6 5 6 6 6 7 7 6 6 6 6 6 6 4 5 5 6 5 5
3 2 2 3 3 2 2 2 1 1 1 2 2 3 3 3 3 4 6 6 6 6 6 6 6 4 5 7 8 8 9 8 8 7 6 7 7 6 5 5 6 6 5
3 2 3 3 3 2 2 2 2 1 1 2 3 3 3 3 2 3 5 6 6 5 6 6 6 5 5 6 6 8 9 10 10 9 9 8 8 6 6 7 6 7 6
3 3 2 3 2 2 2 2 1 1 2 2 3 3 3 2 2 3 6 6 6 6 6 6 6 6 5 6 8 7 7 6 7 8 8 9 8 7 6 7 8 8 8
3 2 2 2 2 2 1 1 1 2 2 2 2 3 4 3 2 4 5 5 4 5 6 5 5 5 4 5 7 7 8 7 5 6 7 8 9 9 8 7 7 7 7
3 3 2 2 2 2 1 1 2 2 3 3 3 3 4 4 2 3 5 5 5 5 5 4 2 3 4 5 7 7 8 8 8 7 6 8 9 8 9 9 8 7 7
2 2 2 2 2 2 2 2 2 3 3 3 3 3 3 3 2 3 4 5 5 6 5 5 3 1 4 6 7 7 8 9 9 8 7 6 5 5 5 6 6 6 7
2 2 2 2 2 1 1 2 2 3 3 3 3 3 2 1 1 1 3 5 7 6 6 5 4 4 7 8 6 6 8 8 7 6 6 5 5 5 5 5 6 6 7
3 2 2 2 1 1 2 2 2 2 3 2 2 3 3 2 1 2 4 5 6 5 5 6 7 8 9 7 5 7 7 5 5 6 6 6 6 6 6 5 6 6 8
3 2 2 2 2 1 1 1 1 2 2 3 3 4 4 3 3 4 4 4 4 4 5 5 7 9 8 6 6 5 4 4 5 5 6 6 5 5 5 6 6 5 5
2 2 2 2 1 1 1 1 2 2 3 4 4 4 5 4 5 7 6 6 6 6 7 5 5 5 5 5 5 4 4 4 4 5 6 6 6 6 6 5 5 5 6
2 2 2 1 1 1 1 1 1 1 0 1 3 4 3 4 6 7 7 7 7 7 6 4 5 5 6 6 6 6 5 5 5 6 6 6 6 7 7 6 5 6 6
2 1 1 1 1 1 1 1 0 2 3 3 2 2 3 4 5 6 7 7 7 5 4 5 5 6 6 7 7 7 7 6 6 6 6 7 7 7 7 7 6 6 6
2 2 2 1 1 1 1 1 1 2 1 1 2 3 1 2 3 4 6 6 3 2 4 5 6 5 6 6 7 7 7 7 7 7 7 7 7 7 7 7 6 7 7
2 1 1 1 1 1 1 1 1 2 3 3 3 3 1 1 2 2 4 4 5 5 5 5 6 6 6 6 7 7 7 7 8 7 7 7 7 8 8 8 7 7 7
3 1 1 1 1 0 0 1 2 2 3 3 3 4 4 3 3 3 3 5 5 6 6 6 6 6 6 7 7 7 7 7 8 7 8 8 8 8 8 9 9 8 7
2 4 4 2 0 1 1 1 2 2 3 3 3 4 4 4 4 5 4 5 5 6 6 6 6 6 6 6 7 8 9 8 8 8 8 8 9 8 8 8 8 8 8
1 2 2 1 1 1 1 1 2 2 3 4 3 2 0 3 4 4 5 5 5 5 5 6 6 6 6 7 7 7 8 8 8 8 9 9 8 8 8 8 8 8 8
1 1 2 2 1 2 0 1 2 2 3 3 4 4 3 4 4 4 5 4 5 5 5 5 6 6 6 6 6 7 7 8 8 9 10 9 9 8 8 8 9 9 8
2 1 1 1 1 0 1 1 2 2 3 3 4 4 4 4 4 4 4 4 5 5 5 6 6 8 10 8 6 6 7 8 10 9 11 10 9 9 8 8 9 9 8
2 1 1 1 1 0 1 2 2 3 3 3 4 4 4 4 4 4 5 5 6 6 7 7 6 7 9 10 9 8 8 8 8 9 9 8 9 9 9 9 8 8 8
2 1 1 1 1 0 1 1 2 2 3 3 3 4 4 4 4 4 5 5 6 6 6 6 8 9 9 8 9 9 7 8 8 9 9 7 7 7 9 8 9 8 8
Wind_Direction
150 145 147 157 164 170 174 174 180 189 208 217 226 248 265 275 273 265 274 274 276 279 277 278 279 281 282 283 281 276 273 272 277 287 292 293 286 279 278 274 267 258 243
144 144 148 149 152 164 161 168 194 198 225 232 239 245 254 265 270 268 270 276 277 280 280 281 286 287 285 281 280 278 278 274 273 282 287 286 286 281 275 272 272 270 269
145 146 139 149 159 167 166 170 185 193 241 254 252 252 265 274 275 276 277 281 280 278 279 282 284 286 286 290 286 285 283 278 273 274 280 284 281 281 279 271 270 270 270
147 145 144 162 167 163 170 170 176 192 237 263 272 279 284 284 285 287 289 288 287 284 283 282 282 284 287 291 287 286 286 284 279 275 279 282 282 284 282 278 275 269 270
154 154 152 159 163 169 175 172 165 207 247 266 274 281 284 284 304 311 299 291 291 289 290 289 288 286 285 281 288 296 294 287 285 285 287 290 293 294 292 294 284 280 274
161 162 154 153 156 169 179 177 186 228 265 275 285 291 293 313 4 321 298 294 291 290 294 297 292 272 274 258 257 267 273 279 286 288 287 294 297 298 297 289 287 288 283
165 163 161 159 156 172 192 186 194 227 257 278 283 290 298 323 329 302 295 285 289 291 291 293 297 311 301 302 287 256 250 243 248 266 279 284 288 293 293 285 282 285 286
168 165 163 163 160 177 203 199 225 254 264 274 287 294 294 310 310 291 295 273 281 285 287 287 291 300 316 318 305 301 294 281 256 248 265 275 282 285 282 279 278 270 266
166 166 173 180 184 190 199 216 242 262 274 278 282 286 290 297 292 286 289 285 285 288 288 290 291 299 330 315 298 298 300 299 274 252 261 267 275 275 272 270 269 269 272
173 174 181 188 200 205 207 250 261 266 274 286 296 294 296 300 296 284 287 286 299 301 299 292 291 297 315 306 297 299 299 305 307 296 266 254 254 253 240 247 265 274 280
170 164 167 182 209 222 232 251 267 279 294 299 301 295 295 302 292 277 286 291 305 305 308 309 334 15 300 292 287 291 297 300 295 288 283 279 273 268 259 251 256 265 275
169 169 177 197 222 207 225 256 275 285 274 275 281 287 292 291 305 288 267 276 295 300 306 315 331 322 297 287 287 294 291 286 284 291 295 297 297 294 290 282 275 265 265
162 172 179 184 214 235 235 247 260 266 280 290 299 318 336 351 359 249 262 268 269 279 304 315 301 286 283 277 262 269 276 282 296 302 304 305 306 305 297 284 276 268 266
165 171 173 180 200 203 250 264 296 308 312 321 332 337 340 340 350 350 332 315 288 286 307 301 266 256 258 275 284 276 279 299 301 299 301 302 301 294 287 287 285 280 275
171 170 184 183 184 216 224 334 320 5 355 325 337 337 338 339 1 346 325 328 331 336 321 303 311 325 326 329 325 319 310 302 300 304 303 303 302 300 296 294 290 290 287
176 181 194 179 173 233 206 140 103 243 154 282 305 310 341 347 333 328 323 312 301 299 301 317 334 338 335 334 331 330 328 324 323 316 310 307 306 306 303 300 296 293 293
189 198 231 232 237 277 305 319 84 156 185 190 212 242 283 314 320 317 314 306 289 284 305 334 338 338 335 331 332 332 332 333 327 320 319 319 317 313 309 306 305 302 299
205 175 233 237 277 307 323 324 340 345 342 7 167 169 208 291 302 314 314 311 328 338 342 346 343 340 337 336 336 336 335 334 333 331 329 327 325 320 315 311 311 314 310
210 177 213 275 270 295 318 333 0 360 350 352 7 78 86 300 256 283 299 333 350 351 352 349 345 342 341 339 335 334 334 334 337 332 328 327 325 322 321 320 315 313 305
159 100 299 263 208 166 21 5 10 1 351 355 2 14 9 339 343 359 345 352 350 352 352 350 347 342 340 339 336 336 336 336 335 334 335 332 328 326 325 323 321 320 316
150 139 175 222 143 52 36 21 12 352 353 358 12 40 356 328 346 353 349 357 356 352 352 344 340 341 345 342 340 340 339 339 342 340 336 332 329 326 325 323 323 323 324
149 131 139 116 91 66 24 15 356 349 357 1 3 39 5 320 352 356 360 1 358 352 349 342 340 347 350 345 342 338 338 339 339 336 330 326 323 323 322 322 324 325 326
173 146 135 119 113 120 203 1 354 355 3 6 4 5 7 6 359 2 2 360 354 353 349 345 341 347 350 343 338 340 341 340 335 329 325 320 321 322 324 325 324 322 324
170 167 148 139 146 124 28 358 358 3 9 11 5 3 4 3 359 5 359 354 351 349 349 349 349 350 348 343 340 348 356 348 334 326 325 322 323 324 325 326 324 326 328
179 161 159 158 149 76 18 3 9 9 8 5 1 356 360 1 2 4 1 357 351 350 351 349 348 348 350 351 354 358 358 339 326 323 316 315 320 324 325 326 327 327 328
174 166 182 167 124 57 14 7 8 3 358 356 355 357 357 357 1 2 358 355 348 348 348 349 352 355 355 356 2 358 344 334 330 321 312 316 323 329 330 327 330 330 329